EW1613 Weather Reports


time (UTC)temp
C
wind
direction
speed
KPH
gust
KPH
rain 1hr
cm
rain 24hr
cm
rain mn
cm
humidity
%
barometer
mb
20260502231929 15 193 0.0 0.0 0.00 0.00 0.00 61 1020.8
20260502231438 15 193 0.0 0.0 0.00 0.00 0.00 60 1020.9
20260502230934 15 193 0.0 0.0 0.00 0.00 0.00 60 1020.8
20260502230449 15 193 0.0 0.0 0.00 0.00 0.00 59 1020.9
20260502225940 15 193 0.0 0.0 0.00 0.00 0.00 59 1020.9
20260502225436 15 193 0.0 0.0 0.00 0.00 0.00 58 1021.0
20260502225005 15 193 0.0 0.0 0.00 0.00 0.00 58 1020.9
20260502224435 15 193 0.0 3.2 0.00 0.00 0.00 58 1020.9
20260502223952 15 193 0.0 3.2 0.00 0.00 0.00 57 1020.9
20260502223446 16 193 0.0 0.0 0.00 0.00 0.00 57 1020.9
20260502222934 16 193 0.0 0.0 0.00 0.00 0.00 57 1021.0
20260502222430 16 193 0.0 3.2 0.00 0.00 0.00 57 1021.1
20260502221941 16 193 0.0 3.2 0.00 0.00 0.00 57 1021.1
20260502221429 16 188 0.0 0.0 0.00 0.00 0.00 57 1021.1
20260502221005 16 188 0.0 0.0 0.00 0.00 0.00 57 1021.0
20260502220438 16 188 0.0 0.0 0.00 0.00 0.00 56 1021.1
20260502215947 16 188 0.0 0.0 0.00 0.00 0.00 56 1021.0
20260502215444 16 188 0.0 0.0 0.00 0.00 0.00 56 1021.0
20260502214931 16 188 0.0 1.6 0.00 0.00 0.00 55 1021.1
20260502214428 16 188 0.0 1.6 0.00 0.00 0.00 55 1021.1
20260502213944 16 188 0.0 1.6 0.00 0.00 0.00 55 1021.1
20260502213437 16 187 0.0 0.0 0.00 0.00 0.00 55 1021.1
20260502212927 16 187 0.0 0.0 0.00 0.00 0.00 55 1021.1
20260502212443 17 188 0.0 0.0 0.00 0.00 0.00 55 1021.1
20260502212000 17 188 0.0 0.0 0.00 0.00 0.00 54 1021.1
20260502211428 17 188 0.0 0.0 0.00 0.00 0.00 54 1021.1
20260502210941 17 188 0.0 0.0 0.00 0.00 0.00 54 1021.1
20260502210430 17 188 0.0 0.0 0.00 0.00 0.00 53 1021.0
20260502205945 17 187 0.0 0.0 0.00 0.00 0.00 52 1021.1
20260502205440 17 187 0.0 0.0 0.00 0.00 0.00 52 1021.1
20260502204936 17 188 0.0 0.0 0.00 0.00 0.00 51 1021.1
20260502204441 17 187 0.0 0.0 0.00 0.00 0.00 51 1021.1
20260502203937 18 187 0.0 0.0 0.00 0.00 0.00 51 1021.1
20260502203451 18 188 0.0 0.0 0.00 0.00 0.00 51 1021.1
20260502202959 18 187 0.0 0.0 0.00 0.00 0.00 50 1021.1
20260502202455 18 187 0.0 0.0 0.00 0.00 0.00 49 1021.1
20260502201931 18 187 0.0 0.0 0.00 0.00 0.00 49 1021.1
20260502201438 18 188 0.0 3.2 0.00 0.00 0.00 48 1021.1
20260502200935 18 188 0.0 4.8 0.00 0.00 0.00 48 1021.2
20260502200449 18 188 1.6 4.8 0.00 0.00 0.00 48 1021.1
20260502195935 18 188 3.2 4.8 0.00 0.00 0.00 47 1021.1
20260502195451 19 190 1.6 4.8 0.00 0.00 0.00 47 1021.1
20260502194943 19 190 1.6 6.4 0.00 0.00 0.00 47 1021.1
20260502194433 19 190 3.2 6.4 0.00 0.00 0.00 47 1021.1
20260502193945 19 192 3.2 4.8 0.00 0.00 0.00 47 1021.1
20260502193440 19 194 1.6 4.8 0.00 0.00 0.00 47 1021.1
20260502192928 20 194 1.6 4.8 0.00 0.00 0.00 47 1021.1
20260502192440 20 194 1.6 3.2 0.00 0.00 0.00 46 1021.0
20260502191934 20 194 0.0 4.8 0.00 0.00 0.00 46 1021.0
20260502191440 20 194 3.2 4.8 0.00 0.00 0.00 45 1021.0
20260502190935 20 196 1.6 4.8 0.00 0.00 0.00 45 1021.0
20260502190451 20 198 1.6 4.8 0.00 0.00 0.00 45 1020.9
20260502185941 20 200 1.6 3.2 0.00 0.00 0.00 45 1020.8
20260502185439 20 200 1.6 3.2 0.00 0.00 0.00 44 1020.8
20260502184953 21 201 1.6 4.8 0.00 0.00 0.00 44 1020.8
20260502184442 21 201 1.6 4.8 0.00 0.00 0.00 44 1020.8
20260502183935 21 201 1.6 6.4 0.00 0.00 0.00 44 1020.8
20260502183451 21 202 1.6 6.4 0.00 0.00 0.00 43 1020.8
20260502182941 21 206 1.6 3.2 0.00 0.00 0.00 43 1020.7
20260502182455 21 209 1.6 3.2 0.00 0.00 0.00 42 1020.7
20260502181930 21 211 0.0 4.8 0.00 0.00 0.00 42 1020.7
20260502181440 22 212 1.6 4.8 0.00 0.00 0.00 42 1020.7
20260502180957 22 214 1.6 6.4 0.00 0.00 0.00 41 1020.7
20260502180453 22 241 1.6 6.4 0.00 0.00 0.00 41 1020.6
20260502170430 23 212 4.8 11.3 0.00 0.00 0.00 37 1020.6
20260502163939 24 229 8.0 17.7 0.00 0.00 0.00 36 1020.8
20260502163436 24 242 11.3 17.7 0.00 0.00 0.00 35 1020.8
20260502162926 24 196 9.7 17.7 0.00 0.00 0.00 35 1020.9
20260502162443 24 238 6.4 16.1 0.00 0.00 0.00 35 1020.9
20260502161931 24 238 8.0 14.5 0.00 0.00 0.00 35 1021.0
20260502161427 25 226 6.4 12.9 0.00 0.00 0.00 34 1021.0
20260502160933 25 252 6.4 12.9 0.00 0.00 0.00 35 1021.1
20260502160431 25 209 8.0 14.5 0.00 0.00 0.00 34 1021.1
20260502151442 25 186 3.2 16.1 0.00 0.00 0.00 33 1021.5
20260502150929 25 179 8.0 19.3 0.00 0.00 0.00 34 1021.6
20260502150443 25 225 11.3 19.3 0.00 0.00 0.00 34 1021.6
20260502130451 25 238 8.0 17.7 0.00 0.00 0.00 33 1023.1
20260502123446 24 238 16.1 29.0 0.00 0.00 0.00 33 1023.4
20260502122933 25 230 8.0 12.9 0.00 0.00 0.00 33 1023.5
20260502122431 24 214 4.8 22.5 0.00 0.00 0.00 34 1023.5
20260502121947 24 213 8.0 22.5 0.00 0.00 0.00 34 1023.6
20260502121435 24 242 12.9 19.3 0.00 0.00 0.00 33 1023.7
20260502120930 24 277 1.6 14.5 0.00 0.00 0.00 34 1023.7
20260502120439 24 262 6.4 24.1 0.00 0.00 0.00 34 1023.8
20260502115443 24 223 12.9 22.5 0.00 0.00 0.00 34 1023.9
20260502114940 24 220 6.4 17.7 0.00 0.00 0.00 34 1024.0
20260502114427 24 250 9.7 17.7 0.00 0.00 0.00 33 1024.1
20260502113942 24 240 8.0 19.3 0.00 0.00 0.00 33 1024.1
20260502113432 24 239 11.3 19.3 0.00 0.00 0.00 34 1024.2
20260502112927 24 228 6.4 17.7 0.00 0.00 0.00 34 1024.3
20260502112435 24 240 8.0 12.9 0.00 0.00 0.00 33 1024.3
20260502111952 23 268 1.6 19.3 0.00 0.00 0.00 33 1024.4
20260502111445 23 211 6.4 19.3 0.00 0.00 0.00 33 1024.5
20260502110933 24 233 11.3 17.7 0.00 0.00 0.00 34 1024.5
20260502110429 23 190 4.8 11.3 0.00 0.00 0.00 33 1024.6
20260502110002 23 206 4.8 17.7 0.00 0.00 0.00 35 1024.7
20260502105429 23 205 6.4 24.1 0.00 0.00 0.00 34 1024.8
20260502104943 23 202 9.7 24.1 0.00 0.00 0.00 34 1024.8
20260502104436 23 280 1.6 16.1 0.00 0.00 0.00 34 1024.9
20260502103953 23 243 4.8 17.7 0.00 0.00 0.00 35 1025.0
20260502103507 23 210 6.4 17.7 0.00 0.00 0.00 35 1025.0
20260502102935 23 246 4.8 16.1 0.00 0.00 0.00 34 1025.1
20260502102431 23 198 8.0 20.9 0.00 0.00 0.00 35 1025.1
20260502101946 23 238 11.3 20.9 0.00 0.00 0.00 35 1025.2
20260502101435 22 243 1.6 19.3 0.00 0.00 0.00 35 1025.3
20260502100930 22 250 11.3 19.3 0.00 0.00 0.00 35 1025.4
20260502100507 22 226 4.8 19.3 0.00 0.00 0.00 36 1025.4
20260502091432 22 242 1.6 11.3 0.00 0.00 0.00 37 1025.8
20260502090948 22 222 3.2 6.4 0.00 0.00 0.00 38 1025.8
20260502090503 22 192 0.0 1.6 0.00 0.00 0.00 39 1025.8
20260502071430 17 360 0.0 0.0 0.00 0.00 0.00 52 1026.6
20260502070926 17 355 0.0 0.0 0.00 0.00 0.00 54 1026.6
20260502070442 16 355 0.0 0.0 0.00 0.00 0.00 56 1026.7
20260502065958 16 355 0.0 0.0 0.00 0.00 0.00 55 1026.7
20260502065452 15 355 0.0 1.6 0.00 0.00 0.00 56 1026.7
20260502064941 15 355 0.0 3.2 0.00 0.00 0.00 58 1026.8
20260502064437 15 360 1.6 3.2 0.00 0.00 0.00 58 1026.7
20260502063945 15 360 0.0 1.6 0.00 0.00 0.00 59 1026.8
20260502063439 15 360 0.0 3.2 0.00 0.00 0.00 60 1026.8
20260502062951 14 360 0.0 4.8 0.00 0.00 0.00 61 1026.8
20260502062441 14 338 0.0 4.8 0.00 0.00 0.00 62 1026.9
20260502061959 13 331 0.0 4.8 0.00 0.00 0.00 64 1026.9
20260502061454 13 331 0.0 4.8 0.00 0.00 0.00 65 1026.9
20260502061006 13 327 0.0 3.2 0.00 0.00 0.00 67 1026.8
20260502060433 12 325 0.0 3.2 0.00 0.00 0.00 68 1026.9
20260502055945 12 324 1.6 6.4 0.00 0.00 0.00 69 1026.9
20260502055430 12 323 3.2 6.4 0.00 0.00 0.00 69 1026.9
20260502054945 12 319 1.6 3.2 0.00 0.00 0.00 70 1026.9
20260502054440 12 320 0.0 3.2 0.00 0.00 0.00 70 1026.8
20260502053930 11 319 0.0 4.8 0.00 0.00 0.00 70 1026.8
20260502053445 11 318 0.0 4.8 0.00 0.00 0.00 69 1026.8
20260502052934 11 317 1.6 6.4 0.00 0.00 0.00 69 1026.9
20260502052430 11 320 1.6 6.4 0.00 0.00 0.00 69 1026.9
20260502051945 11 320 1.6 6.4 0.00 0.00 0.00 69 1026.9
20260502051430 10 324 0.0 4.8 0.00 0.00 0.00 69 1027.0
20260502050945 10 326 0.0 4.8 0.00 0.00 0.00 69 1026.9
20260502050442 10 327 0.0 0.0 0.00 0.00 0.00 70 1027.0
20260502045932 10 327 0.0 0.0 0.00 0.00 0.00 70 1027.0
20260502045427 10 327 0.0 1.6 0.00 0.00 0.00 71 1026.9
20260502044942 10 327 0.0 1.6 0.00 0.00 0.00 71 1026.9
20260502044450 9 327 0.0 0.0 0.00 0.00 0.00 71 1027.0
20260502044010 9 327 0.0 0.0 0.00 0.00 0.00 71 1026.9
20260502043439 9 327 0.0 3.2 0.00 0.00 0.00 71 1026.9
20260502042927 9 327 0.0 3.2 0.00 0.00 0.00 71 1026.9
20260502042443 9 327 0.0 1.6 0.00 0.00 0.00 72 1026.9
20260502042000 9 327 0.0 0.0 0.00 0.00 0.00 71 1026.8
20260502041429 9 327 0.0 0.0 0.00 0.00 0.00 71 1026.8
20260502040941 9 327 0.0 0.0 0.00 0.00 0.00 71 1026.8
20260502040435 9 327 0.0 1.6 0.00 0.00 0.00 70 1026.9
20260502035941 9 327 0.0 1.6 0.00 0.00 0.00 70 1026.9
20260502035436 9 327 0.0 1.6 0.00 0.00 0.00 70 1026.9
20260502034928 9 327 0.0 1.6 0.00 0.00 0.00 70 1026.8
20260502034443 10 327 0.0 1.6 0.00 0.00 0.00 70 1026.8
20260502033932 10 327 0.0 0.0 0.00 0.00 0.00 69 1026.8
20260502033429 10 327 0.0 0.0 0.00 0.00 0.00 69 1026.8
20260502032943 10 327 0.0 0.0 0.00 0.00 0.00 69 1026.8
20260502032430 10 327 0.0 0.0 0.00 0.00 0.00 69 1026.8
20260502032004 10 327 0.0 0.0 0.00 0.00 0.00 69 1026.8
20260502031438 10 327 0.0 0.0 0.00 0.00 0.00 68 1026.8
20260502030945 10 327 0.0 0.0 0.00 0.00 0.00 68 1026.7
20260502030440 10 327 0.0 0.0 0.00 0.00 0.00 68 1026.8
20260502025928 10 327 0.0 0.0 0.00 0.00 0.00 68 1026.8
20260502025444 10 327 0.0 0.0 0.00 0.00 0.00 68 1026.8
20260502024933 10 327 0.0 0.0 0.00 0.00 0.00 67 1026.8
20260502024430 10 327 0.0 0.0 0.00 0.00 0.00 66 1026.8
20260502023943 10 327 0.0 0.0 0.00 0.00 0.00 66 1026.8
20260502023431 10 327 0.0 0.0 0.00 0.00 0.00 66 1026.8
20260502022944 10 327 0.0 0.0 0.00 0.00 0.00 65 1026.8
20260502022459 11 327 0.0 0.0 0.00 0.00 0.00 65 1026.8
20260502021941 11 327 0.0 0.0 0.00 0.00 0.00 65 1026.8
20260502021436 11 327 0.0 0.0 0.00 0.00 0.00 64 1026.8
20260502020952 11 327 0.0 0.0 0.00 0.00 0.00 65 1026.8
20260502020442 11 327 0.0 0.0 0.00 0.00 0.00 64 1026.8
20260502015937 11 327 0.0 0.0 0.00 0.00 0.00 64 1026.8
20260502015444 11 327 0.0 0.0 0.00 0.00 0.00 64 1026.8
20260502014939 11 327 0.0 0.0 0.00 0.00 0.00 63 1026.8
20260502014436 11 327 0.0 0.0 0.00 0.00 0.00 63 1026.8
20260502013926 11 327 0.0 0.0 0.00 0.00 0.00 63 1026.8
20260502013441 11 327 0.0 0.0 0.00 0.00 0.00 62 1026.8
20260502012928 11 327 0.0 0.0 0.00 0.00 0.00 63 1026.8
20260502012426 11 327 0.0 0.0 0.00 0.00 0.00 62 1026.8
20260502011942 11 327 0.0 3.2 0.00 0.00 0.00 62 1026.8
20260502011432 11 327 0.0 3.2 0.00 0.00 0.00 61 1026.7
20260502010949 11 327 0.0 3.2 0.00 0.00 0.00 61 1026.8
20260502010436 11 325 0.0 0.0 0.00 0.00 0.00 60 1026.8
20260502005928 11 325 0.0 0.0 0.00 0.00 0.00 60 1026.8
20260502005435 12 325 0.0 0.0 0.00 0.00 0.00 59 1026.8
20260502004931 12 325 0.0 0.0 0.00 0.00 0.00 59 1026.9
20260502004445 12 325 0.0 0.0 0.00 0.00 0.00 58 1026.9
20260502003935 12 325 0.0 0.0 0.00 0.00 0.00 58 1026.8
20260502003429 12 325 0.0 1.6 0.00 0.00 0.00 57 1026.8
20260502003006 12 325 0.0 1.6 0.00 0.00 0.00 56 1026.8
20260502002441 12 325 0.0 1.6 0.00 0.00 0.00 56 1026.9
20260502001930 12 325 0.0 1.6 0.00 0.00 0.00 56 1026.9
20260502001443 12 325 0.0 0.0 0.00 0.00 0.00 55 1027.0
20260502000933 12 325 0.0 0.0 0.00 0.00 0.00 55 1027.0
20260502000441 12 325 0.0 1.6 0.00 0.00 0.00 54 1027.0
20260501235938 12 325 0.0 3.2 0.00 0.00 0.00 54 1026.9
20260501235452 12 325 0.0 3.2 0.00 0.00 0.00 54 1026.9
20260501235000 12 325 0.0 1.6 0.00 0.00 0.00 54 1026.9
20260501234435 12 325 0.0 1.6 0.00 0.00 0.00 54 1026.9
20260501233949 12 325 0.0 0.0 0.00 0.00 0.00 54 1027.0
20260501233436 12 325 0.0 0.0 0.00 0.00 0.00 53 1026.9
20260501232930 12 325 0.0 1.6 0.00 0.00 0.00 53 1026.9
20260501232446 12 325 0.0 1.6 0.00 0.00 0.00 52 1026.9